ATLAS 5 CENTAUR DEB, 46652

Orbit data source: Space-Track

ATLAS 5 CENTAUR DEB, 46652 is space debris in HEO originally from a launch on Wed, 17 Sep 2014 UTC launched from the Air Force Eastern Test Range (AFETR). Debris objects in space refer to the collection of defunct objects orbiting the Earth. Examples of debris include non-operational satellites, rocket bodies, and fragments generated from explosions, collisions, or faulty payload assembly.

Loading next visibility...
ATLAS 5 CENTAUR DEB details
Identifier
46652, 2014-055DC
Orbit
HEO
Last TLE update9 months ago
Origin
Flag of USULA (US)
ManufacturerUnknown
MissionSpacecraft
Bus & MotorUnknown
MassUnknown
Launch date (UTC)
2014-09-17 (10 years ago)
Launch vehicleUnknown
Launch site
Air Force Eastern Test Range (AFETR)
Object type
Payload
Rocket body
Debris
Shape & HBRUnknown
Radar Cross SectionRCS unknown

Expand to show TLE details & history

TLE from 9 months ago
0 ATLAS 5 CENTAUR DEB
1 46652U 14055DC  24099.56760409 -.00000108  00000-0  00000+0 0  9998
2 46652  20.3344 235.1777 3967316 355.1400   1.7695  1.82545949 23219
Epoch: 2024-04-08T13:37Z
Definitive object data (Epoch: 2024-04-08T13:37:20.993Z)
Latitude0.00002°
Longitude-166.51368°
Altitude10,693.355 km
Speed5.71 km/s
True Right ascension15h 40m 31s
True Declination0° 00' 00"
Sunlit
Object was in daylight at TLE epoch
Visualization TLE readout
Latitude17.22825°
Longitude-64.80384°
Altitude17,139.494 km
Speed4.45 km/s
Apparent Right ascension22h 33m 34s
Apparent Declination6° 01' 25"
Sunlit
Object is in daylight
Visualization observer readout
Local Sidereal Time11:02:07
Azimuth9.825° NNE
Elevation-43.591°
Doppler factor1
Orbital elements
Apogee altitude33,124.454 km
Perigee altitude10,683.598 km
Semi-major axis28,282.163 km
Eccentricity0.3967316
Inclination20.3344°
RAAN235.1777°
Arg. of periapsis355.14°
True anomaly4.46059°
Mean anomaly1.7695°
Eccentric anomaly2.93235°
Mean motion0.45632 °/min
BSTARUnknown
Orbital period788.91 mins
Loading maneuver chart data...

ATLAS 5 CENTAUR DEB Visibility forecast

Observer location: undefined°, undefined

Span
Click to sort rows by Start time (UTC) header in descending order
Start Az.
Max El. time (UTC)
Max El. Az.
Max El.
End time (UTC)
End Az.
715 mins2024-12-26 23:45:44.112Z268.921° W2024-12-27 01:27:44.112Z211.697° SW37.825°2024-12-27 11:40:44.112Z134.651° SE
|